This is the latest recevied weather packets stored in our database for station/object AA4XD. If no packets are shown the sender has not sent any weather packets the latest 10 day(s).
| Time | Temp. | Humidity | Pressure | Rain* | Wind** | Luminosity | Snow |
|---|---|---|---|---|---|---|---|
| 1777863821 | 16.67° C | 71% | 1017.3 hPa | 0 mm | - | 0 W/m² | - |
| 1777863517 | 16.67° C | 70% | 1017.4 hPa | 0 mm | - | 0 W/m² | - |
| 1777863214 | 16.67° C | 70% | 1017.2 hPa | 0 mm | - | 0 W/m² | - |
| 1777862911 | 16.67° C | 71% | 1017.3 hPa | 0 mm | - | 0 W/m² | - |
| 1777862607 | 16.67° C | 68% | 1017.2 hPa | 0 mm | - | 0 W/m² | - |
| 1777862304 | 17.22° C | 69% | 1017.2 hPa | 0 mm | - | 0 W/m² | - |
| 1777862001 | 17.22° C | 68% | 1017.1 hPa | 0 mm | - | 0 W/m² | - |
| 1777861697 | 17.22° C | 67% | 1017 hPa | 0 mm | - | 0 W/m² | - |
| 1777861394 | 17.78° C | 65% | 1017 hPa | 0 mm | - | 0 W/m² | - |
| 1777861090 | 17.78° C | 64% | 1017 hPa | 0 mm | - | 0 W/m² | - |
| 1777860788 | 17.78° C | 65% | 1016.8 hPa | 0 mm | - | 0 W/m² | - |
| 1777860484 | 17.78° C | 65% | 1016.8 hPa | 0 mm | - | 0 W/m² | - |
| 1777860181 | 18.33° C | 64% | 1016.8 hPa | 0 mm | - | 0 W/m² | - |
| 1777859877 | 18.33° C | 62% | 1016.7 hPa | 0 mm | - | 0 W/m² | - |
| 1777859574 | 18.89° C | 64% | 1016.5 hPa | 0 mm | - | 0 W/m² | - |
| 1777859269 | 18.89° C | 61% | 1016.6 hPa | 0 mm | - | 0 W/m² | - |
| 1777858966 | 18.89° C | 58% | 1016.4 hPa | 0 mm | - | 0 W/m² | - |
| 1777858664 | 18.89° C | 61% | 1016.5 hPa | 0 mm | - | 0 W/m² | - |
| 1777858361 | 19.44° C | 60% | 1016.5 hPa | 0 mm | - | 0 W/m² | - |
| 1777858058 | 19.44° C | 60% | 1016.2 hPa | 0 mm | - | 0 W/m² | - |
| 1777857756 | 19.44° C | 61% | 1016.1 hPa | 0 mm | - | 0 W/m² | - |
| 1777857452 | 19.44° C | 59% | 1016 hPa | 0 mm | - | 0 W/m² | - |
| 1777857149 | 20° C | 58% | 1016 hPa | 0 mm | - | 0 W/m² | - |
| 1777856845 | 20° C | 52% | 1015.7 hPa | 0 mm | - | 0 W/m² | - |
| 1777856541 | 19.44° C | 52% | 1015.5 hPa | 0 mm | - | 0 W/m² | - |
* Rain latest hour (hover to see other rain measurements)
** Current wind speed in m/s (hover to see current wind gust speed)